Theta_e
295 295 296 297 299 301 303 308 310 312 318 322 322 322 322 321 320 320 318 317 317 316
294 295 296 297 299 300 304 308 309 311 312 321 322 321 321 320 319 319 319 319 318 317
293 294 296 298 300 302 305 306 310 310 313 320 320 319 319 318 319 318 315 317 315 312
291 293 294 295 297 299 301 302 305 307 307 308 308 310 311 310 310 306 304 304 304 302
290 291 292 292 294 296 297 298 300 301 301 302 303 303 303 301 302 300 298 298 298 297
288 289 290 291 292 293 294 295 296 297 297 298 299 298 297 297 296 294 294 294 294 294
287 288 288 289 290 291 292 292 293 294 294 295 296 295 295 294 293 292 291 291 291 291
286 287 287 287 288 289 289 290 291 292 292 293 294 294 293 291 290 289 288 289 289 289
286 286 286 286 287 287 287 287 288 289 289 290 291 292 292 290 288 287 286 285 285 286
285 285 285 285 285 285 285 286 286 287 288 287 289 290 289 287 286 284 284 283 283 283
284 283 283 284 283 283 284 284 284 284 285 286 287 288 287 286 284 284 283 282 282 282
281 280 280 280 280 280 281 282 282 283 282 284 285 287 286 284 283 281 281 282 282 282
281 280 279 280 280 280 281 281 281 281 281 281 283 287 286 284 283 281 281 282 283 284
280 280 280 280 279 279 279 279 278 278 278 279 281 284 287 285 282 281 280 280 280 282
Wind_Speed
5 3 3 4 4 4 4 4 5 6 5 7 7 8 8 7 7 8 8 11 9 7
6 6 5 6 5 4 5 5 6 6 7 6 6 7 8 6 6 6 7 8 8 7
6 6 6 6 6 6 5 7 5 5 7 4 2 2 4 3 5 6 1 3 3 3
6 6 6 5 6 6 6 6 5 5 6 6 6 5 5 5 6 7 7 7 6 7
6 7 7 6 7 6 6 5 5 5 5 8 5 8 6 8 8 7 8 7 8 8
7 7 7 7 7 7 6 6 6 6 7 6 7 8 7 9 9 9 8 6 7 8
7 7 7 7 8 8 8 8 7 7 7 6 8 7 8 9 9 9 9 8 7 8
6 6 7 7 7 8 9 8 8 8 8 9 7 5 7 9 9 9 9 9 10 9
5 5 6 6 7 8 9 8 9 10 9 9 6 12 12 9 9 8 9 9 7 8
3 4 5 4 6 7 7 7 8 9 8 8 8 15 15 14 8 8 8 7 6 7
4 4 4 4 6 6 5 7 6 7 7 7 8 15 16 16 9 8 9 8 7 6
4 4 4 5 4 3 5 6 6 5 6 6 7 13 13 11 8 8 8 6 6 6
3 4 3 4 3 2 5 5 4 6 5 6 6 10 10 8 5 8 5 5 5 10
3 2 1 2 1 3 5 5 5 5 4 4 3 6 9 9 4 5 5 4 3 3
Wind_Direction
318 302 291 288 303 300 303 293 309 286 295 215 219 214 213 218 213 213 218 221 217 210
331 327 313 303 283 280 292 299 280 299 273 248 220 220 217 217 198 200 210 214 215 216
335 325 316 310 328 324 326 320 303 255 257 244 224 225 210 213 213 214 208 218 170 99
342 338 335 336 335 335 332 336 348 20 53 58 59 36 66 61 73 85 65 45 72 75
359 360 360 358 355 353 6 8 14 36 57 78 62 68 65 80 71 78 80 76 76 52
9 12 13 11 9 19 29 31 30 47 56 62 75 79 77 85 84 83 73 72 85 92
13 17 22 20 21 27 33 40 37 40 54 55 68 82 91 88 86 88 80 75 68 70
13 24 35 33 30 35 39 40 37 48 45 49 55 64 82 84 84 90 86 70 69 68
20 20 30 35 38 47 43 43 45 47 50 56 60 62 75 89 92 86 86 85 71 66
39 42 39 36 56 52 54 55 49 54 61 65 70 80 81 79 79 86 92 92 84 75
60 53 35 40 62 56 54 59 62 50 37 70 75 87 86 83 80 78 74 67 69 85
65 79 70 65 61 62 62 62 60 49 47 60 76 88 94 92 88 80 68 70 68 68
77 96 106 106 101 77 77 77 75 71 47 33 76 104 110 102 105 97 89 66 78 96
87 105 140 120 81 98 89 87 65 72 42 50 67 115 134 140 120 128 124 99 69 74